Probability
1 2 4 4 4 4 4 4 6 6 6 5 4 4 3 3 3 3 3 2 1 0 0 0 1 1 1 0 0 0 0 0 0 1 0 0 0 0 0 0 0 0 0
1 2 4 5 5 4 3 4 5 6 6 6 5 4 3 3 3 3 2 1 0 0 0 0 0 0 0 0 0 0 0 0 1 1 1 0 0 0 0 0 0 0 0
1 2 4 6 6 5 4 4 5 6 6 6 6 5 4 3 3 2 1 0 0 0 0 0 0 0 0 0 0 0 0 0 1 2 1 0 0 0 0 0 0 0 0
2 3 5 6 6 6 6 5 6 6 6 6 6 6 5 4 3 1 0 0 0 0 0 0 0 0 0 0 0 0 0 0 0 1 1 0 0 1 1 0 0 0 0
3 4 6 7 7 8 8 8 7 8 8 8 7 7 6 4 2 1 0 0 0 0 0 0 0 0 0 1 1 1 0 1 0 0 0 0 1 2 2 2 2 1 0
5 5 7 9 9 9 8 8 8 9 10 10 9 8 7 5 3 2 1 1 2 1 0 0 0 0 0 1 2 1 0 0 0 0 0 0 1 2 2 2 3 2 1
7 8 9 10 10 9 7 7 8 8 9 10 10 10 9 7 6 6 5 4 3 2 1 0 0 0 0 1 2 1 0 0 0 0 0 0 1 1 1 1 2 2 1
7 8 10 10 10 8 7 7 7 7 7 8 8 10 11 11 11 10 9 7 4 4 3 2 1 1 0 1 2 1 0 0 0 0 0 1 2 1 0 0 2 2 2
4 6 8 10 10 8 8 7 7 7 6 5 6 7 9 11 12 12 11 9 6 5 4 4 3 2 1 1 1 1 0 0 0 0 1 2 3 3 2 1 2 3 3
4 4 7 9 10 9 10 9 8 7 6 4 4 5 6 8 10 11 10 9 8 6 5 5 5 4 2 0 0 0 0 0 1 1 2 3 4 5 4 3 2 3 3
5 5 6 7 9 11 12 12 11 9 7 5 4 4 4 6 8 8 7 8 9 7 6 6 6 5 3 1 0 0 0 0 0 1 2 3 5 6 5 4 3 3 3
5 6 7 7 9 10 12 13 13 11 8 7 6 5 5 7 8 7 5 6 8 7 6 7 6 4 2 1 1 0 0 0 0 0 1 1 3 4 4 3 3 3 3
5 6 7 8 9 10 11 12 12 11 10 9 8 7 8 9 9 8 8 8 7 6 7 8 5 3 2 2 2 1 1 1 1 1 1 0 1 2 2 3 3 3 3
4 4 4 6 8 9 9 9 9 10 10 9 8 8 10 10 10 10 10 10 8 7 8 9 7 4 3 3 3 3 2 2 2 2 2 1 0 0 1 2 3 3 3
3 2 2 3 6 7 7 7 7 8 7 7 7 7 8 9 9 9 10 9 8 7 7 8 7 4 3 3 3 3 3 3 3 3 2 1 0 0 0 1 3 3 3
2 1 1 3 4 6 6 6 6 6 6 5 5 6 6 7 8 8 7 6 6 5 4 4 4 3 3 3 3 3 3 3 3 3 3 1 0 0 0 1 2 3 3
1 0 1 2 4 6 6 6 6 6 6 4 4 5 6 8 8 7 5 4 3 3 2 1 1 2 3 3 3 3 3 3 3 3 3 2 1 1 0 0 1 3 4
0 0 0 1 3 6 6 6 6 6 6 4 3 4 5 8 8 6 4 2 1 1 1 0 0 1 2 3 3 2 1 1 2 3 3 3 3 2 1 0 1 3 4
0 0 0 1 3 6 6 6 6 6 5 4 3 3 4 6 6 4 3 1 0 0 0 0 0 0 1 3 3 1 0 0 1 2 3 3 3 3 2 1 1 3 3
0 0 0 1 3 5 6 6 6 6 5 4 3 3 3 4 4 4 3 1 0 0 0 0 0 0 1 2 2 1 0 0 1 1 2 3 3 3 3 3 3 3 3
0 0 0 0 2 5 6 7 6 5 3 3 2 1 1 2 3 4 3 1 0 0 0 0 0 0 0 1 2 1 0 0 0 0 1 1 2 3 3 3 4 4 5
0 0 0 0 1 3 6 7 6 4 2 1 1 0 0 1 2 3 3 1 0 0 0 0 0 0 0 1 1 1 0 0 0 0 0 0 1 2 2 2 3 4 5
0 0 0 0 0 1 4 6 6 4 2 0 0 0 0 0 1 3 3 2 1 0 0 0 0 0 0 0 1 1 0 0 0 0 0 0 0 1 1 1 1 1 2
0 0 0 0 0 1 3 5 6 6 3 1 1 1 0 0 1 2 3 3 1 0 0 0 0 0 0 0 0 0 0 0 0 0 0 0 0 0 0 0 0 0 1
0 0 1 1 1 1 2 4 5 6 5 3 2 2 1 1 1 1 2 3 2 1 0 0 0 0 0 0 0 0 0 0 0 0 0 0 0 0 0 0 0 0 0
0 0 1 2 1 1 2 2 4 6 6 4 3 3 2 2 2 1 1 3 2 1 0 0 0 0 0 0 0 0 0 0 0 0 0 0 0 0 0 0 0 0 0
Wind_Speed
3 4 5 4 6 7 7 7 7 7 7 7 7 8 8 8 8 9 9 9 9 9 9 10 10 10 10 10 9 10 10 10 10 10 10 10 10 11 11 10 9 10 12
4 5 6 5 6 7 7 8 7 8 8 8 7 7 7 7 8 8 8 8 9 9 9 9 10 10 10 10 10 10 10 10 10 9 8 9 10 10 10 9 9 8 10
5 6 7 5 6 7 7 7 7 8 8 8 8 8 7 7 8 8 8 8 8 8 9 9 9 9 9 10 10 10 9 9 9 7 5 6 8 9 9 9 9 9 9
5 5 6 5 6 7 7 7 7 7 7 7 7 7 7 7 7 7 7 8 8 8 8 8 8 8 8 9 9 9 9 8 7 4 4 5 6 8 8 8 8 8 8
5 5 6 5 6 7 7 7 7 7 7 7 7 7 7 7 7 7 7 7 7 7 7 7 7 8 8 8 8 8 8 7 5 3 5 5 5 8 8 8 8 8 8
5 5 6 5 6 6 7 7 7 7 7 6 7 7 7 6 6 6 6 6 6 7 7 7 7 7 7 7 7 7 7 5 3 4 4 4 5 8 8 8 8 8 8
5 5 6 5 6 6 6 6 6 6 6 6 6 7 7 6 6 6 6 6 6 7 7 7 7 7 7 7 7 7 6 4 3 4 4 4 6 7 7 8 8 7 7
4 4 5 5 5 5 6 6 5 5 5 6 6 7 7 7 7 6 6 6 6 6 6 6 6 6 6 6 6 6 5 3 3 3 3 4 6 6 7 6 7 7 6
4 3 3 4 4 4 5 5 5 4 5 5 5 6 6 6 6 6 6 6 5 5 6 6 6 6 6 6 6 6 5 3 2 3 3 3 5 5 6 6 6 6 6
3 3 3 3 3 3 3 4 4 4 5 5 5 5 5 5 5 5 5 5 4 5 5 6 6 6 6 6 6 6 4 1 2 3 2 4 4 4 5 5 6 6 6
2 2 2 2 2 2 2 3 4 4 5 4 4 4 2 2 3 3 5 5 5 5 6 6 7 6 5 6 6 5 2 1 2 2 2 5 4 5 5 5 5 5 5
3 2 1 2 2 2 2 2 2 2 2 2 2 2 1 1 2 2 5 5 5 5 6 6 6 5 3 2 4 2 1 2 2 2 3 5 4 4 4 4 5 5 4
4 3 2 2 2 2 1 1 1 1 1 1 2 1 1 1 1 1 1 2 2 3 3 4 3 2 2 2 1 1 2 1 1 1 3 5 4 3 3 4 4 4 4
4 4 3 2 2 2 2 1 1 1 1 1 1 1 1 1 1 1 1 1 1 1 1 1 1 2 2 2 2 2 1 1 1 1 3 6 5 3 3 3 3 3 3
5 4 4 4 3 2 2 1 1 1 1 1 1 1 1 1 1 1 1 1 1 1 1 1 1 2 2 2 1 1 1 1 1 1 2 5 5 4 3 3 3 2 3
6 5 4 4 3 3 2 2 2 2 1 1 1 1 1 1 1 1 1 1 1 1 1 0 1 1 1 1 1 1 1 1 1 1 1 2 4 5 4 3 3 2 2
6 5 4 4 4 3 3 3 2 2 2 1 1 1 1 1 2 1 1 1 0 1 1 1 1 1 1 1 1 1 0 0 1 1 1 1 1 3 4 4 3 2 2
5 5 5 4 4 4 3 3 2 2 2 1 1 1 2 2 2 2 1 1 0 0 0 0 1 1 1 1 0 0 0 0 1 1 0 1 1 1 2 4 4 3 3
5 5 5 5 5 4 3 3 2 2 2 1 1 1 1 2 2 2 1 1 1 1 1 1 1 1 1 1 1 1 1 1 1 1 1 0 1 1 1 2 3 3 4
4 5 5 4 4 4 3 3 2 2 2 1 1 1 2 2 2 2 1 1 2 1 1 1 1 1 1 1 1 1 1 1 1 1 1 1 0 1 1 2 1 1 3
4 4 4 4 4 4 3 3 2 2 2 2 2 2 2 2 2 2 2 2 2 2 2 2 1 2 1 1 1 1 2 2 2 1 1 1 1 1 1 2 2 2 1
5 4 4 4 4 4 3 3 2 2 2 2 2 2 2 2 3 2 3 2 2 2 2 2 2 2 1 1 2 2 2 3 2 2 2 2 2 2 2 2 2 2 2
5 5 4 5 4 4 4 3 2 2 2 2 2 2 2 3 3 3 3 3 3 3 3 3 3 3 2 2 2 2 2 2 1 2 2 2 2 2 2 2 3 3 3
5 5 5 5 4 4 4 4 5 4 4 3 3 2 2 3 3 3 4 3 3 3 3 3 3 3 3 3 2 2 2 2 2 2 2 2 3 3 3 3 3 3 3
5 4 5 5 5 4 5 6 6 5 4 3 3 3 3 2 3 3 4 4 3 3 3 3 3 3 3 3 3 2 2 2 3 3 3 3 3 3 3 4 3 3 3
4 4 4 5 5 5 5 6 6 6 5 4 4 4 3 3 3 4 4 4 4 3 4 4 4 4 4 4 4 3 3 3 3 3 4 4 4 3 3 3 3 3 3
Wind_Direction
137 133 111 112 101 93 92 93 94 93 92 95 96 95 95 95 94 90 86 84 82 82 81 81 80 77 78 83 86 84 81 82 83 79 78 79 80 81 81 80 82 83 81
133 136 120 113 108 102 97 92 94 93 90 89 93 94 98 99 96 92 87 86 84 83 84 83 81 77 75 77 81 82 80 79 77 78 81 84 81 81 80 75 70 79 81
131 135 135 113 112 109 103 96 98 97 93 91 90 86 89 100 99 94 90 87 85 83 83 85 82 80 77 76 76 78 80 81 77 74 85 91 88 84 82 77 79 85 84
128 132 129 111 111 107 102 98 99 99 96 94 92 89 87 88 93 93 92 89 87 84 82 83 83 81 81 79 77 77 76 79 76 74 91 85 87 83 84 79 81 85 85
126 126 117 111 109 108 105 101 97 95 96 95 93 90 89 84 82 89 89 89 89 87 86 84 84 84 85 84 81 79 77 75 74 82 81 81 83 84 83 80 79 83 86
121 117 112 104 106 106 105 101 95 92 91 93 92 92 92 89 82 80 85 87 88 88 89 87 86 86 86 86 83 81 76 73 87 84 81 77 81 86 85 84 85 83 85
114 108 109 97 100 100 101 103 101 95 93 93 93 90 89 90 86 82 78 84 88 90 90 91 89 86 86 85 83 81 75 55 73 78 76 76 76 82 86 86 85 83 84
111 110 110 99 89 89 91 97 100 100 96 98 95 89 87 86 87 85 80 82 86 90 91 93 91 88 86 87 84 78 69 42 78 74 74 79 74 79 82 81 81 80 79
109 108 106 113 106 93 86 87 89 95 96 92 93 90 85 83 87 86 84 82 89 92 91 90 92 92 89 86 83 78 65 30 74 76 65 71 69 77 81 78 77 76 73
111 113 109 110 108 109 109 91 81 84 87 84 81 77 75 83 85 80 82 80 88 100 99 96 96 90 85 79 74 74 66 52 74 71 64 64 62 85 87 82 78 74 74
137 132 126 121 116 106 108 102 100 92 87 90 90 80 84 112 104 91 74 65 75 95 100 98 92 87 85 85 76 67 70 72 76 58 59 55 60 82 83 77 74 76 75
185 177 166 153 142 135 121 121 125 126 121 123 123 121 119 103 86 83 78 69 64 76 96 89 84 91 88 97 92 90 71 53 60 56 58 53 55 71 78 72 69 70 71
202 191 191 180 169 159 147 146 136 126 126 130 130 129 124 116 113 110 105 106 99 90 108 103 109 97 77 68 74 78 48 37 25 38 53 41 39 57 66 69 72 78 70
211 204 200 193 184 176 170 164 154 144 146 140 130 127 130 118 126 124 119 110 106 89 94 111 104 99 89 75 67 64 52 35 28 24 46 37 29 37 52 63 74 77 69
218 213 209 201 190 180 173 169 165 163 162 148 148 156 152 135 123 122 124 112 111 105 103 125 133 117 108 91 67 57 47 32 24 19 50 40 24 25 35 36 44 62 68
220 215 212 206 196 186 184 181 175 172 167 169 168 171 172 147 143 146 142 133 146 137 111 124 138 123 114 105 85 59 26 10 3 11 27 48 35 24 25 30 36 37 36
216 210 205 204 196 191 190 188 180 171 175 173 166 176 170 163 170 165 148 148 110 120 147 134 143 136 126 126 116 96 35 357 327 334 359 351 17 35 26 19 18 14 8
208 203 200 197 194 192 191 189 183 180 177 175 171 175 180 181 181 173 166 171 150 152 150 138 181 156 158 177 182 210 242 253 250 294 324 344 355 0 30 21 2 358 354
204 196 195 192 190 189 189 187 179 181 184 180 179 184 189 192 190 182 186 184 180 178 168 175 216 214 190 199 224 252 259 259 255 258 268 327 354 348 341 25 8 359 346
201 192 188 188 185 181 182 182 172 177 189 188 193 198 204 204 201 191 186 192 201 195 189 188 188 218 232 225 223 234 244 249 242 247 249 250 292 306 319 330 329 357 350
195 189 187 188 188 184 185 187 188 194 197 200 204 208 212 213 208 203 195 198 207 208 209 202 202 193 221 257 246 234 221 218 225 232 239 248 244 275 306 320 316 316 321
197 194 193 194 195 195 200 201 206 199 209 211 212 212 216 221 217 211 205 202 206 209 210 209 208 210 202 237 272 261 240 205 198 233 239 249 260 277 289 301 300 297 300
205 203 200 201 203 203 200 190 173 180 198 205 209 213 220 222 219 218 216 213 205 207 212 212 209 215 213 210 254 268 261 258 291 207 238 250 264 284 286 290 285 285 284
212 210 208 203 203 204 201 199 192 201 207 220 222 220 220 224 222 218 216 216 212 214 213 211 214 223 215 215 216 258 288 306 266 260 223 238 268 277 280 283 276 277 279
214 212 214 207 205 205 206 207 206 210 210 209 214 219 220 220 223 220 216 216 215 219 219 214 212 220 219 219 222 223 235 252 258 258 263 259 264 268 281 284 275 271 274
213 210 212 208 208 209 209 212 213 215 212 206 212 217 220 221 222 222 220 220 219 219 220 219 217 222 226 223 224 227 230 234 241 253 260 266 276 284 285 277 267 270 271